Regional Weather Roundup
Issued by NWS

Home | Current Version | Previous Version | Graphics & Text | Print | Product List | Glossary Off
Versions: 1 2 3 4 5 6 7 8 9 10 11 12 13 14 15 16 17 18 19 20 21 22 23 24 25 26 27 28 29 30 31 32 33 34 35 36 37 38 39 40 41 42 43 44 45 46 47 48 49 50

000
ASUS43 KDMX 030404
RWRIA

WEATHER ROUNDUP FOR IOWA
NATIONAL WEATHER SERVICE DES MOINES IA
  ISSUED BY NWS QUAD CITIES IA IL
1000 PM CST MON MAR 02 2015

NOTE: "FAIR" INDICATES FEW OR NO CLOUDS BELOW 12,000 FEET WITH NO
SIGNIFICANT WEATHER AND/OR OBSTRUCTIONS TO VISIBILITY.

* - THESE STATIONS ARE NOT NWS STATIONS...THUS NOT UNDER NWS
QUALITY CONTROL.  THEY ALSO DO NOT REPORT WEATHER SUCH
AS PRECIPITATION OR FOG.

IAZ001>003-012>014-020>022-031>034-043>046-030500-
   NORTHWEST IOWA

CITY           SKY/WX    TMP DP  RH WIND       PRES   REMARKS
CARROLL *      CLOUDY    27  21  80 SE17      30.03F WCI  14
CHEROKEE *     CLOUDY    28  21  77 SE15G23   30.00F WCI  16
DENNISON *     FAIR      28  21  74 SE13G20   29.99F WCI  18
LE MARS *      CLOUDY    30  21  69 SE16G23   29.97S WCI  19
ORANGE CITY *  FAIR      28  21  74 SE13      29.95F WCI  18
SHELDON *      CLOUDY    27  21  80 SE16      29.95F WCI  14
SIOUX CITY     MOCLDY    33  21  61 SE12G21   29.96F WCI  24
SPENCER        CLOUDY    26  19  74 SE16      30.00F WCI  14
STORM LAKE *   CLOUDY    25  19  80 SE16      30.00F WCI  12
$$

IAZ055>058-069>071-079>083-090>094-030500-
   SOUTHWEST IOWA

CITY           SKY/WX    TMP DP  RH WIND       PRES   REMARKS
ATLANTIC *     CLOUDY    30  21  69 SE13G21   30.03F WCI  20
AUDUBON *      FAIR      28  19  69 SE9       30.04F WCI  20
CLARINDA *     CLOUDY    34  19  55 SE15G25   30.06F WCI  24
COUNCIL BLFS * CLOUDY    32  19  59 SE18      29.98F WCI  20
CRESTON *      CLOUDY    30  19  64 SE15G21   30.05F WCI  19
HARLAN *       FAIR      30  21  69 SE14G21   30.04F WCI  20
LAMONI         CLOUDY    30  20  66 SE8G20    30.07F WCI  22
RED OAK *      CLOUDY    32  19  59 S16       30.03F WCI  21
SHENANDOAH *   CLOUDY    32  19  59 SE17      30.03F WCI  21
$$

IAZ047>049-059>061-072>074-084-030500-
   CENTRAL IOWA

CITY           SKY/WX    TMP DP  RH WIND       PRES   REMARKS
AMES           FAIR      26  18  71 SE13      30.10F WCI  15
ANKENY *       FAIR      28  19  69 SE9       30.12F WCI  20
BOONE *        FAIR      27  21  80 SE15      30.06F WCI  15
CHARITON *     CLOUDY    30  21  69 SE13      30.11F WCI  20
DES MOINES     CLOUDY    29  18  63 SE12      30.11F WCI  19
GRINNELL *     FAIR      26  19  77 SE8       30.14F WCI  17
KNOXVILLE *    CLOUDY    28  18  64 SE13      30.11F WCI  18
MARSHALLTOWN   CLOUDY    25  17  72 SE17      30.12F WCI  12
NEWTON *       FAIR      27  19  74 SE13      30.13F WCI  16
PELLA *        FAIR      28  22  81 SE8       30.15F WCI  19
PERRY *          N/A     28  22  76 SE14      30.07F WCI  17
$$

IAZ004>006-015-016-023>025-035-036-030500-
   NORTH CENTRAL IOWA

CITY           SKY/WX    TMP DP  RH WIND       PRES   REMARKS
ALGONA *       CLOUDY    25  19  80 SE20G26   30.04F WCI  11
CLARION *      CLOUDY    23  19  86 SE17      30.07F WCI   9
ESTHERVILLE    CLOUDY    23  19  85 S18       30.02F WCI   9
FORT DODGE *   CLOUDY    27  18  69 SE12      30.06F WCI  16
MASON CITY     CLOUDY    21  14  74 SE16      30.09F WCI   7
FOREST CITY *  CLOUDY    23  14  68 SE16      30.06F WCI  10
WEBSTER CITY * CLOUDY    25  21  86 SE16      30.05F WCI  12
IOWA FALLS *   CLOUDY    24  19  80 SE12      30.11F WCI  13
$$

IAZ007>011-017>019-026>030-037>042-050>054-066-030500-
   NORTHEAST IOWA

CITY           SKY/WX    TMP DP  RH WIND       PRES   REMARKS
CEDAR RAPIDS   CLOUDY    24  19  81 SE9       30.17F WCI  14
CHARLES CITY * CLOUDY    23  16  74 SE14      30.12F WCI  11
CLINTON *      CLOUDY    25  19  80 SE13      30.26F WCI  13
DECORAH *      CLOUDY    23  14  68 S8G16     30.14F WCI  14
DUBUQUE        CLOUDY    23  16  74 SE10      30.20F WCI  12
MONTICELLO *   CLOUDY    25  19  80 SE10      30.19F WCI  15
OELWEIN *      CLOUDY    23  18  80 SE13      30.15F WCI  11
WATERLOO       CLOUDY    24  17  74 SE8       30.15F WCI  15
$$

IAZ064-065-067-068-078-030500-
   EAST CENTRAL IOWA

CITY           SKY/WX    TMP DP  RH WIND       PRES   REMARKS
DAVENPORT      CLOUDY    26  17  68 SE12      30.23F WCI  16
IOWA CITY      CLOUDY    26  18  71 SE9       30.20F WCI  17
MT. PLEASANT * FAIR      27  19  72 SE9       30.20F WCI  18
MUSCATINE *    FAIR      28  21  74 SE10      30.22F WCI  19
QUAD CITIES    CLOUDY    27  18  69 SE10      30.23F WCI  17
$$

IAZ062-063-075>077-085>089-095>099-030500-
   SOUTHEAST IOWA

CITY           SKY/WX    TMP DP  RH WIND       PRES   REMARKS
BURLINGTON     FAIR      27  20  75 SE9       30.19F WCI  18
FAIRFIELD *    CLOUDY    28  19  69 SE10      30.17F WCI  19
FORT MADISON * FAIR      28  19  69 SE9       30.20F WCI  20
KEOKUK *       FAIR      28  21  74 SE10      30.19F WCI  19
OSKALOOSA *    FAIR      27  20  75 SE12      30.15F WCI  16
CENTERVILLE *  CLOUDY    28  21  74 SE12      30.13F WCI  18
OTTUMWA        FAIR      27  18  69 SE9       30.14F WCI  18
WASHINGTON *   FAIR      27  23  86 SE10      30.19F WCI  17
$$

ABBREVIATIONS USED IN REMARKS
   TC - TEMPERATURES IN CELSIUS
  WCI - WIND CHILL INDEX
   HX - HEAT INDEX
  VSB - VISIBILITY
$$



USA.gov is the U.S. government's official web portal to all federal, state and local government web resources and services.